CW9904 Dayboro AU current weather conditions

sailwx.info

Wind from 028 at 0 knots gusting 4

Air temperature 26.7° C
Dewpoint 24.5° C

Last reported at 2020-Jan-22 12:59 UTC.
Time now 2020-Jan-22 13:25 UTC

Location: S 27°11' E 152°50'.
View on Google Maps.

See reports from other nearby stations

  
Tides and Currents Weather Stations Pressure Air Temp Water Temp Dewpoint Dewpoint Depression Visibility Wind Speed Wind Dir Waves Ship Positions
date/time (UTC)wind fromknots sea level pressurealtimeterstation pressurevisibilityair tempwater tempwave heightnotes
2020-Jan-22 13:09 161 26.7
2020-Jan-22 13:04 028 26.7
2020-Jan-22 12:59 028 0 gusting 4 26.7
2020-Jan-22 12:54 032 5 gusting 10 26.7
2020-Jan-22 12:49 026 3 gusting 5 26.7
2020-Jan-22 12:44 024 0 gusting 2 26.7
2020-Jan-22 12:39 026 26.7
2020-Jan-22 12:34 021 26.7
2020-Jan-22 12:29 012 26.7
2020-Jan-22 12:24 019 26.7
2020-Jan-22 12:19 019 0 gusting 4 26.7
2020-Jan-22 12:14 351 26.7
2020-Jan-22 12:09 353 0 gusting 6 26.7
2020-Jan-22 12:04 009 1 gusting 4 27.2
2020-Jan-22 11:59 015 27.2
2020-Jan-22 11:54 013 0 gusting 2 27.2
2020-Jan-22 11:49 034 1 gusting 5 27.2
2020-Jan-22 11:44 032 1 gusting 2 27.2
2020-Jan-22 11:39 029 0 gusting 2 27.2
2020-Jan-22 11:34 042 27.2
2020-Jan-22 11:29 042 27.2
2020-Jan-22 11:24 042 27.2
2020-Jan-22 11:19 042 27.2
2020-Jan-22 11:14 042 27.2
2020-Jan-22 11:09 080 0 gusting 4 27.2
2020-Jan-22 11:04 044 27.2
2020-Jan-22 10:59 052 0 gusting 5 27.2
2020-Jan-22 10:54 153 27.2
2020-Jan-22 10:49 162 0 gusting 4 27.2
2020-Jan-22 10:44 102 0 gusting 2 27.2
2020-Jan-22 10:39 067 27.2
2020-Jan-22 10:34 052 27.2
2020-Jan-22 10:29 073 0 gusting 4 27.2
2020-Jan-22 10:24 071 27.2
2020-Jan-22 10:19 029 27.2
2020-Jan-22 10:14 026 27.2
2020-Jan-22 10:09 165 27.2
2020-Jan-22 10:04 029 27.2
2020-Jan-22 09:59 049 0 gusting 8 27.2
2020-Jan-22 09:54 023 27.8
2020-Jan-22 09:49 313 2 gusting 8 27.8
2020-Jan-22 09:44 033 0 gusting 8 27.8
2020-Jan-22 09:39 061 27.8
2020-Jan-22 09:34 049 0 gusting 4 27.8
2020-Jan-22 09:29 060 27.8
2020-Jan-22 09:24 114 0 gusting 6 27.8
2020-Jan-22 09:19 028 0 gusting 10 27.8
2020-Jan-22 09:14 077 0 gusting 10 27.8
2020-Jan-22 09:09 049 4 gusting 11 27.8
2020-Jan-22 09:04 023 3 gusting 17 27.8
2020-Jan-22 08:59 029 7 gusting 17 27.8
2020-Jan-22 08:54 039 4 gusting 13 27.8
2020-Jan-22 08:49 020 6 gusting 13 28.3
2020-Jan-22 08:44 025 4 gusting 11 28.3
2020-Jan-22 08:39 053 1 gusting 6 28.3
2020-Jan-22 08:34 049 0 gusting 10 28.3
2020-Jan-22 08:29 041 4 gusting 10 28.3
2020-Jan-22 08:24 009 28.3
2020-Jan-22 08:19 357 5 gusting 10 28.3
2020-Jan-22 08:14 036 4 gusting 19 28.3
2020-Jan-22 08:09 021 7 gusting 14 28.9
2020-Jan-22 08:04 036 8 gusting 14 28.9
2020-Jan-22 07:59 033 8 gusting 15 28.9
2020-Jan-22 07:54 041 10 gusting 17 28.9
2020-Jan-22 07:49 053 8 gusting 17 28.9
2020-Jan-22 07:44 030 11 gusting 18 29.4
2020-Jan-22 07:39 041 11 gusting 18 29.4
2020-Jan-22 07:29 024 12 gusting 20 29.4
2020-Jan-22 07:24 012 12 gusting 19 29.4
2020-Jan-22 07:19 036 13 gusting 19 30.0
2020-Jan-22 07:14 035 10 gusting 19 30.0
2020-Jan-22 07:09 031 11 gusting 17 30.0
2020-Jan-22 07:04 027 13 gusting 19 30.0
2020-Jan-22 06:59 029 12 gusting 17 30.0
2020-Jan-22 06:54 020 10 gusting 17 30.6
2020-Jan-22 06:49 032 11 gusting 18 30.6
2020-Jan-22 06:44 023 9 gusting 17 30.6
2020-Jan-22 06:39 029 11 gusting 17 30.6
2020-Jan-22 06:34 028 13 gusting 19 30.6
2020-Jan-22 06:29 020 13 gusting 20 30.6
2020-Jan-22 06:24 027 12 gusting 19 31.1
2020-Jan-22 06:19 024 10 gusting 14 31.1
2020-Jan-22 06:14 034 6 gusting 17 31.1
2020-Jan-22 06:09 048 7 gusting 12 31.7
2020-Jan-22 06:04 026 8 gusting 17 31.7
2020-Jan-22 05:59 040 7 gusting 17 31.7
2020-Jan-22 05:54 038 10 gusting 18 32.2
2020-Jan-22 05:49 037 8 gusting 15 32.2
2020-Jan-22 05:44 042 11 gusting 15 32.2
2020-Jan-22 05:39 029 9 gusting 17 32.2
2020-Jan-22 05:34 018 12 gusting 18 32.2
2020-Jan-22 05:29 010 10 gusting 17 32.8
2020-Jan-22 05:24 023 8 gusting 13 32.8
2020-Jan-22 05:19 047 6 gusting 17 33.3
2020-Jan-22 05:14 060 1 gusting 10 33.3
2020-Jan-22 05:09 033 5 gusting 12 33.3
2020-Jan-22 05:04 069 6 gusting 13 33.9
2020-Jan-22 04:59 048 2 gusting 13 34.4
2020-Jan-22 04:54 025 4 gusting 10 34.4
2020-Jan-22 04:49 048 34.4
2020-Jan-22 04:44 024 1 gusting 11 34.4
2020-Jan-22 04:39 020 1 gusting 10 34.4
2020-Jan-22 04:34 026 3 gusting 10 34.4
2020-Jan-22 04:29 007 0 gusting 7 34.4
2020-Jan-22 04:24 014 4 gusting 10 34.4
2020-Jan-22 04:19 357 0 gusting 6 34.4
2020-Jan-22 04:14 004 5 gusting 10 34.4
2020-Jan-22 04:09 002 1 gusting 7 34.4
2020-Jan-22 04:04 035 1 gusting 6 35.0
2020-Jan-22 03:59 058 4 gusting 6 35.0
2020-Jan-22 03:54 042 1 gusting 7 35.0
2020-Jan-22 03:49 111 34.4
2020-Jan-22 03:44 027 34.4
2020-Jan-22 03:39 073 34.4
2020-Jan-22 03:34 076 34.4
2020-Jan-22 03:29 015 7 gusting 10 34.4
2020-Jan-22 03:24 029 2 gusting 8 34.4
2020-Jan-22 03:19 027 0 gusting 10 34.4
2020-Jan-22 03:14 018 3 gusting 10 34.4
2020-Jan-22 03:09 025 1 gusting 7 33.9
2020-Jan-22 03:04 030 0 gusting 10 34.4
2020-Jan-22 02:59 354 33.9
2020-Jan-22 02:54 038 2 gusting 10 33.9
2020-Jan-22 02:49 037 0 gusting 7 33.9
2020-Jan-22 02:44 008 6 gusting 10 33.9
2020-Jan-22 02:39 059 2 gusting 7 33.9
2020-Jan-22 02:34 027 3 gusting 8 33.3
2020-Jan-22 02:29 023 2 gusting 8 33.3
2020-Jan-22 02:24 036 0 gusting 6 33.3
2020-Jan-22 02:19 015 2 gusting 10 33.3
2020-Jan-22 02:14 026 4 gusting 7 33.3
2020-Jan-22 02:09 082 0 gusting 10 33.3
2020-Jan-22 02:04 069 1 gusting 7 33.3
2020-Jan-22 01:59 081 2 gusting 7 33.3
2020-Jan-22 01:54 039 1 gusting 8 33.3
2020-Jan-22 01:49 074 1 gusting 8 32.8
2020-Jan-22 01:44 049 3 gusting 7 32.8
2020-Jan-22 01:39 058 0 gusting 6 32.8
2020-Jan-22 01:34 062 32.8
2020-Jan-22 01:29 060 0 gusting 4 32.8
2020-Jan-22 01:24 068 32.2
2020-Jan-22 01:19 032 1 gusting 10 32.2
2020-Jan-22 01:14 041 32.2
2020-Jan-22 01:09 038 2 gusting 7 32.2
2020-Jan-22 01:04 042 0 gusting 6 32.2
2020-Jan-22 00:59 021 1 gusting 7 32.2
2020-Jan-22 00:54 021 0 gusting 2 32.2
2020-Jan-22 00:49 038 31.7
2020-Jan-22 00:44 034 3 gusting 7 31.7
2020-Jan-22 00:39 055 31.7
2020-Jan-22 00:34 086 31.7
2020-Jan-22 00:29 036 0 gusting 2 31.7
2020-Jan-22 00:24 038 31.1
2020-Jan-22 00:19 036 31.1
2020-Jan-22 00:14 036 31.1
2020-Jan-22 00:09 041 31.1
2020-Jan-22 00:04 026 0 gusting 2 31.1
2020-Jan-21 23:59 068 0 gusting 2 30.6
2020-Jan-21 23:54 081 30.0
2020-Jan-21 23:49 084 30.0
2020-Jan-21 23:44 169 30.0
2020-Jan-21 23:39 173 30.0
2020-Jan-21 23:34 079 30.6
2020-Jan-21 23:29 061 30.6
2020-Jan-21 23:24 062 30.6
2020-Jan-21 23:19 055 0 gusting 2 30.6
2020-Jan-21 23:14 016 0 gusting 2 30.6
2020-Jan-21 23:09 056 30.0
2020-Jan-21 23:04 056 30.0
2020-Jan-21 22:54 028 29.4
2020-Jan-21 22:49 021 29.4
2020-Jan-21 22:44 026 0 gusting 1 28.9
2020-Jan-21 22:39 064 28.9
2020-Jan-21 22:34 064 28.3
2020-Jan-21 22:29 064 28.3
2020-Jan-21 22:24 064 28.3
2020-Jan-21 22:19 064 28.3
2020-Jan-21 22:14 064 28.3
2020-Jan-21 22:09 064 27.8
2020-Jan-21 22:04 064 27.8
2020-Jan-21 21:59 064 27.8
2020-Jan-21 21:54 064 27.8
2020-Jan-21 21:49 064 27.2
2020-Jan-21 21:44 064 26.7
2020-Jan-21 21:39 064 26.1
2020-Jan-21 21:34 064 25.6
2020-Jan-21 21:29 064 25.0
2020-Jan-21 21:24 064 25.0
2020-Jan-21 21:19 064 24.4
2020-Jan-21 21:14 064 24.4
2020-Jan-21 21:09 064 24.4
2020-Jan-21 21:04 064 23.9
2020-Jan-21 20:59 064 23.9
2020-Jan-21 20:54 064 23.9
2020-Jan-21 20:49 064 23.3
2020-Jan-21 20:44 064 22.8
2020-Jan-21 20:39 064 22.2
2020-Jan-21 20:34 064 22.2
2020-Jan-21 20:29 064 21.7
2020-Jan-21 20:24 064 21.7
2020-Jan-21 20:19 064 21.1
2020-Jan-21 20:14 064 21.1
2020-Jan-21 20:09 064 20.6
2020-Jan-21 20:04 064 20.6
2020-Jan-21 19:59 064 20.6
2020-Jan-21 19:54 064 20.6
2020-Jan-21 19:49 064 20.6
2020-Jan-21 19:44 064 20.6
2020-Jan-21 19:39 064 20.6
2020-Jan-21 19:34 064 20.6
2020-Jan-21 19:29 064 20.6
2020-Jan-21 19:24 064 20.6
2020-Jan-21 19:19 064 20.6
2020-Jan-21 19:14 064 20.6
2020-Jan-21 19:09 064 20.6
2020-Jan-21 19:04 064 20.6
2020-Jan-21 18:59 064 20.6
2020-Jan-21 18:54 064 20.6
2020-Jan-21 18:49 064 20.6
2020-Jan-21 18:44 064 20.6
2020-Jan-21 18:39 064 20.6
2020-Jan-21 18:34 064 21.1
2020-Jan-21 18:29 064 21.1
2020-Jan-21 18:24 064 21.1
2020-Jan-21 18:19 064 21.1
2020-Jan-21 18:14 064 21.1
2020-Jan-21 18:09 064 21.1
2020-Jan-21 18:04 064 21.1
2020-Jan-21 17:59 064 21.1
2020-Jan-21 17:54 064 21.1
2020-Jan-21 17:49 064 21.1
2020-Jan-21 17:44 064 21.1
2020-Jan-21 17:39 064 21.7
2020-Jan-21 17:34 064 21.7
2020-Jan-21 17:29 064 21.7
2020-Jan-21 17:24 064 21.7
2020-Jan-21 17:19 064 21.7
2020-Jan-21 17:14 064 22.2
2020-Jan-21 17:09 064 22.2
2020-Jan-21 17:04 064 22.2
2020-Jan-21 16:59 064 22.2
2020-Jan-21 16:54 064 22.8
2020-Jan-21 16:49 064 22.8
2020-Jan-21 16:44 064 22.8
2020-Jan-21 16:39 064 23.3
2020-Jan-21 16:34 064 23.3
2020-Jan-21 16:29 064 23.3
2020-Jan-21 16:24 064 23.3
2020-Jan-21 16:19 064 23.9
2020-Jan-21 16:14 064 23.9
2020-Jan-21 16:09 064 23.9
2020-Jan-21 16:04 064 23.9
2020-Jan-21 15:59 064 23.9
2020-Jan-21 15:54 358 0 gusting 2 23.9
2020-Jan-21 15:49 250 23.9
2020-Jan-21 15:44 246 24.4
2020-Jan-21 15:39 282 24.4
2020-Jan-21 15:34 026 2 gusting 10 23.9
2020-Jan-21 15:29 015 23.3
2020-Jan-21 15:24 013 0 gusting 2 22.8
2020-Jan-21 15:19 013 22.2
2020-Jan-21 15:14 018 0 gusting 2 22.2
2020-Jan-21 15:09 333 22.2
2020-Jan-21 15:04 333 22.2
2020-Jan-21 14:59 333 22.2
2020-Jan-21 14:54 333 22.2
2020-Jan-21 14:49 333 22.2
2020-Jan-21 14:44 333 22.2
2020-Jan-21 14:39 333 22.2
2020-Jan-21 14:34 333 22.8
2020-Jan-21 14:29 333 22.8
2020-Jan-21 14:24 333 22.8
2020-Jan-21 14:19 333 22.8
2020-Jan-21 14:14 333 22.8
2020-Jan-21 14:09 333 23.3
2020-Jan-21 14:04 333 23.3
2020-Jan-21 13:59 333 23.3
2020-Jan-21 13:54 333 23.3
2020-Jan-21 13:49 332 23.3
2020-Jan-21 13:44 332 23.9
2020-Jan-21 13:39 332 23.3
2020-Jan-21 13:34 330 23.3
2020-Jan-21 13:29 327 23.3
2020-Jan-21 13:24 323 23.3
2020-Jan-21 13:19 323 23.3
2020-Jan-21 13:14 323 23.3
2020-Jan-21 13:09 328 23.3
2020-Jan-21 13:04 355 23.3
2020-Jan-21 12:59 004 23.3
2020-Jan-21 12:54 003 23.3
2020-Jan-21 12:49 004 23.3
2020-Jan-21 12:44 003 23.3
2020-Jan-21 12:39 003 23.3
2020-Jan-21 12:34 003 23.3
2020-Jan-21 12:29 025 23.3
2020-Jan-21 12:24 025 23.3
2020-Jan-21 12:19 025 23.9
2020-Jan-21 12:14 322 23.9
2020-Jan-21 12:09 313 23.9
2020-Jan-21 12:04 313 23.9
2020-Jan-21 11:59 313 23.9
2020-Jan-21 11:54 313 23.9
2020-Jan-21 11:49 313 23.9
2020-Jan-21 11:44 313 23.9
2020-Jan-21 11:39 313 24.4
2020-Jan-21 11:34 313 24.4
2020-Jan-21 11:29 313 24.4
2020-Jan-21 11:24 313 24.4
2020-Jan-21 11:19 313 24.4
2020-Jan-21 11:14 313 24.4
2020-Jan-21 11:09 313 24.4
2020-Jan-21 11:04 319 24.4
2020-Jan-21 10:59 319 24.4
2020-Jan-21 10:54 319 24.4
2020-Jan-21 10:49 319 24.4
2020-Jan-21 10:44 319 25.0
2020-Jan-21 10:39 319 24.4
2020-Jan-21 10:34 319 24.4
2020-Jan-21 10:29 319 25.0
2020-Jan-21 10:24 319 25.0
2020-Jan-21 10:19 319 25.0
2020-Jan-21 10:14 319 25.6
2020-Jan-21 10:09 320 0 gusting 2 25.6
2020-Jan-21 10:04 161 25.6
2020-Jan-21 09:59 168 2 gusting 5 25.6
2020-Jan-21 09:54 221 25.6
2020-Jan-21 09:49 111 25.6
2020-Jan-21 09:44 154 26.1
2020-Jan-21 09:39 182 1 gusting 5 26.1
2020-Jan-21 09:34 173 0 gusting 4 25.6
2020-Jan-21 09:29 085 25.6
2020-Jan-21 09:24 085 26.1
2020-Jan-21 09:19 148 26.1
2020-Jan-21 09:14 075 25.6
2020-Jan-21 09:09 065 26.1
2020-Jan-21 09:04 065 26.1
2020-Jan-21 08:59 009 26.7
2020-Jan-21 08:54 319 26.7
2020-Jan-21 08:49 319 26.7
2020-Jan-21 08:44 319 26.7
2020-Jan-21 08:39 319 27.2
2020-Jan-21 08:34 320 27.2
2020-Jan-21 08:29 319 27.2
2020-Jan-21 08:24 319 27.2
2020-Jan-21 08:19 319 27.2
2020-Jan-21 08:14 330 27.8
2020-Jan-21 08:09 300 0 gusting 2 27.8
2020-Jan-21 08:04 333 27.8
2020-Jan-21 07:59 333 27.8
2020-Jan-21 07:54 333 27.8
2020-Jan-21 07:49 086 0 gusting 8 28.3
2020-Jan-21 07:44 030 0 gusting 4 28.3
2020-Jan-21 07:39 006 28.3
2020-Jan-21 07:34 016 28.3
2020-Jan-21 07:29 018 4 gusting 6 28.9
2020-Jan-21 07:24 029 28.9
2020-Jan-21 07:19 028 28.9
2020-Jan-21 07:14 028 28.3
2020-Jan-21 07:09 028 28.3
2020-Jan-21 07:04 032 27.8
2020-Jan-21 06:59 053 27.8
2020-Jan-21 06:54 053 27.2
2020-Jan-21 06:49 053 0 gusting 6 26.7
2020-Jan-21 06:44 030 1 gusting 6 25.6
2020-Jan-21 06:39 020 25.6
2020-Jan-21 06:34 355 25.0
2020-Jan-21 06:29 076 24.4
2020-Jan-21 06:24 087 24.4
2020-Jan-21 06:19 136 4 gusting 10 24.4
2020-Jan-21 06:14 129 24.4
2020-Jan-21 06:09 048 1 gusting 7 24.4
2020-Jan-21 06:04 144 1 gusting 7 24.4
2020-Jan-21 05:59 161 5 gusting 7 25.0
2020-Jan-21 05:54 063 0 gusting 5 26.1
2020-Jan-21 05:49 011 0 gusting 24 27.8
2020-Jan-21 05:44 297 3 gusting 13 30.0
2020-Jan-21 05:39 357 4 gusting 11 30.6
2020-Jan-21 05:34 027 7 gusting 19 30.6
2020-Jan-21 05:29 024 10 gusting 15 30.6
2020-Jan-21 05:24 037 8 gusting 13 31.1
2020-Jan-21 05:19 044 6 gusting 13 31.1
2020-Jan-21 05:14 019 4 gusting 10 31.7
2020-Jan-21 05:09 021 10 gusting 17 31.7
2020-Jan-21 05:04 029 9 gusting 13 31.7
2020-Jan-21 04:59 038 7 gusting 12 32.2
2020-Jan-21 04:54 035 9 gusting 14 32.2
2020-Jan-21 04:49 047 8 gusting 13 32.8
2020-Jan-21 04:44 025 5 gusting 15 33.3
2020-Jan-21 04:39 030 4 gusting 10 33.3
2020-Jan-21 04:34 029 7 gusting 12 33.9
2020-Jan-21 04:29 031 6 gusting 13 33.9
2020-Jan-21 04:24 048 7 gusting 12 33.9
2020-Jan-21 04:19 053 5 gusting 11 34.4
2020-Jan-21 04:14 054 7 gusting 13 34.4
2020-Jan-21 04:09 061 2 gusting 12 34.4
2020-Jan-21 04:04 062 7 gusting 12 35.0
2020-Jan-21 03:59 063 4 gusting 11 35.0
2020-Jan-21 03:54 059 6 gusting 13 35.0
2020-Jan-21 03:49 052 6 gusting 13 35.6
2020-Jan-21 03:44 053 7 gusting 12 36.7
2020-Jan-21 03:39 041 3 gusting 8 37.8
2020-Jan-21 03:34 218 1 gusting 6 37.8
2020-Jan-21 03:29 322 0 gusting 1 37.2
2020-Jan-21 03:24 128 1 gusting 2 37.2
2020-Jan-21 03:19 034 37.2
2020-Jan-21 03:14 052 37.2
2020-Jan-21 03:09 050 37.2
2020-Jan-21 03:04 046 37.2
2020-Jan-21 02:59 298 36.7
2020-Jan-21 02:54 347 36.7
2020-Jan-21 02:49 321 0 gusting 6 36.1
2020-Jan-21 02:44 170 36.1
2020-Jan-21 02:39 170 0 gusting 2 36.1
2020-Jan-21 02:34 168 36.1
2020-Jan-21 02:29 016 36.1
2020-Jan-21 02:24 344 36.1
2020-Jan-21 02:19 064 36.1
2020-Jan-21 02:14 343 36.1
2020-Jan-21 02:09 339 36.1
2020-Jan-21 02:04 248 36.1
2020-Jan-21 01:59 236 36.1
2020-Jan-21 01:54 001 35.6
2020-Jan-21 01:49 017 36.1
2020-Jan-21 01:44 322 36.1
2020-Jan-21 01:39 246 36.1
2020-Jan-21 01:34 324 35.6
2020-Jan-21 01:29 225 1 gusting 6 35.6
2020-Jan-21 01:24 239 35.6
2020-Jan-21 01:19 268 35.6
2020-Jan-21 01:14 298 35.0
2020-Jan-21 01:09 178 35.0
2020-Jan-21 01:04 325 35.0
2020-Jan-21 00:59 317 35.0
2020-Jan-21 00:54 324 34.4
2020-Jan-21 00:49 301 0 gusting 6 34.4
2020-Jan-21 00:44 035 1 gusting 4 33.9
2020-Jan-21 00:39 110 33.9
2020-Jan-21 00:34 167 33.3
2020-Jan-21 00:29 171 0 gusting 5 33.9
2020-Jan-21 00:24 262 33.9
2020-Jan-21 00:19 262 0 gusting 2 33.9
2020-Jan-21 00:14 317 33.3
2020-Jan-21 00:09 330 1 gusting 4 33.3
2020-Jan-21 00:04 002 33.3
2020-Jan-20 23:59 038 2 gusting 6 32.8
2020-Jan-20 23:54 044 0 gusting 2 33.3
2020-Jan-20 23:49 044 32.8
2020-Jan-20 23:44 044 32.8
2020-Jan-20 23:39 056 32.8
2020-Jan-20 23:34 066 0 gusting 2 32.8
2020-Jan-20 23:29 343 32.2
2020-Jan-20 23:24 320 32.2
2020-Jan-20 23:19 045 0 gusting 2 32.2
2020-Jan-20 23:14 079 32.2
2020-Jan-20 23:09 097 31.7
2020-Jan-20 23:04 097 31.7
2020-Jan-20 22:59 049 31.7
2020-Jan-20 22:54 049 31.1
2020-Jan-20 22:49 090 31.1
2020-Jan-20 22:44 092 0 gusting 2 31.1
2020-Jan-20 22:39 057 1 gusting 2 30.6
2020-Jan-20 22:34 032 30.6
2020-Jan-20 22:29 039 30.6
2020-Jan-20 22:24 049 1 gusting 5 31.1
2020-Jan-20 22:19 067 1 gusting 4 30.6
2020-Jan-20 22:14 216 30.6
2020-Jan-20 22:09 227 1 gusting 2 30.6
2020-Jan-20 22:04 284 0 gusting 2 30.0
2020-Jan-20 21:59 340 30.0
2020-Jan-20 21:54 340 29.4
2020-Jan-20 21:49 340 29.4
2020-Jan-20 21:44 340 28.9
2020-Jan-20 21:39 340 28.9
2020-Jan-20 21:34 340 28.3
2020-Jan-20 21:29 340 28.3
2020-Jan-20 21:24 316 28.3
2020-Jan-20 21:19 315 27.8
2020-Jan-20 21:14 316 27.8
2020-Jan-20 21:09 316 27.8
2020-Jan-20 21:04 316 27.8
2020-Jan-20 20:59 017 27.2
2020-Jan-20 20:54 017 26.7
2020-Jan-20 20:49 017 26.7
2020-Jan-20 20:44 017 26.1
2020-Jan-20 20:39 017 25.6
2020-Jan-20 20:34 017 25.6
2020-Jan-20 20:29 017 25.0
2020-Jan-20 20:24 017 24.4
2020-Jan-20 20:19 017 0 gusting 2 23.9
2020-Jan-20 20:14 342 23.9
2020-Jan-20 20:09 296 23.3
2020-Jan-20 20:04 296 23.3
2020-Jan-20 19:59 296 23.3
2020-Jan-20 19:54 295 23.3
2020-Jan-20 19:49 278 23.3
2020-Jan-20 19:44 275 23.3
2020-Jan-20 19:39 271 0 gusting 2 23.3
2020-Jan-20 19:34 278 23.3
2020-Jan-20 19:29 261 23.3
2020-Jan-20 19:24 246 0 gusting 6 23.3
2020-Jan-20 19:19 004 23.3
2020-Jan-20 19:14 004 23.3
2020-Jan-20 19:09 003 23.3
2020-Jan-20 19:04 003 23.3
2020-Jan-20 18:59 004 23.3
2020-Jan-20 18:54 003 23.3
2020-Jan-20 18:49 003 23.3
2020-Jan-20 18:44 003 23.3
2020-Jan-20 18:39 003 23.3
2020-Jan-20 18:34 003 23.3
2020-Jan-20 18:29 004 23.3
2020-Jan-20 18:24 004 23.3
2020-Jan-20 18:19 003 23.3
2020-Jan-20 18:14 003 23.3
2020-Jan-20 18:09 004 23.3
2020-Jan-20 18:04 003 0 gusting 2 23.3
2020-Jan-20 17:59 202 23.3
2020-Jan-20 17:54 198 23.3
2020-Jan-20 17:49 186 23.3
2020-Jan-20 17:44 094 23.3
2020-Jan-20 17:39 091 23.3
2020-Jan-20 17:34 091 23.3
2020-Jan-20 17:29 091 23.3
2020-Jan-20 17:24 091 23.3
2020-Jan-20 17:19 091 23.3
2020-Jan-20 17:14 091 23.3
2020-Jan-20 17:09 091 23.3
2020-Jan-20 17:04 091 23.3
2020-Jan-20 16:59 091 23.3
2020-Jan-20 16:54 091 23.3
2020-Jan-20 16:49 091 23.9
2020-Jan-20 16:44 091 23.9
2020-Jan-20 16:39 091 23.9
2020-Jan-20 16:34 091 23.9
2020-Jan-20 16:29 091 23.9
2020-Jan-20 16:24 091 23.9
2020-Jan-20 16:19 091 23.9
2020-Jan-20 16:14 091 23.9
2020-Jan-20 16:09 091 24.4
2020-Jan-20 16:04 091 24.4
2020-Jan-20 15:59 092 24.4
2020-Jan-20 15:54 092 24.4
2020-Jan-20 15:49 092 24.4
2020-Jan-20 15:44 092 24.4
2020-Jan-20 15:39 092 24.4
2020-Jan-20 15:34 092 24.4
2020-Jan-20 15:29 092 24.4
2020-Jan-20 15:24 092 24.4
2020-Jan-20 15:19 125 24.4
2020-Jan-20 15:14 150 24.4
2020-Jan-20 15:09 150 24.4
2020-Jan-20 15:04 150 24.4
2020-Jan-20 14:59 150 24.4
2020-Jan-20 14:54 150 24.4
2020-Jan-20 14:49 150 24.4
2020-Jan-20 14:44 150 24.4
2020-Jan-20 14:39 150 24.4
2020-Jan-20 14:34 150 24.4
2020-Jan-20 14:29 150 24.4
2020-Jan-20 14:24 150 24.4
2020-Jan-20 14:19 150 24.4
2020-Jan-20 14:14 150 25.0
2020-Jan-20 14:09 150 25.0
2020-Jan-20 14:04 150 25.0
2020-Jan-20 13:59 150 25.0
2020-Jan-20 13:54 150 25.0
2020-Jan-20 13:49 150 25.0
2020-Jan-20 13:44 150 25.0
2020-Jan-20 13:39 150 25.0
2020-Jan-20 13:34 150 25.0
2020-Jan-20 13:29 150 25.0
2020-Jan-20 13:24 150 25.0
2020-Jan-20 13:19 150 25.0
2020-Jan-20 13:14 150 25.0
2020-Jan-20 13:09 150 25.0
2020-Jan-20 13:04 150 25.0